WetterOnline ( https://www.wetteronline.de )

Wetter aktuell Kassel

Aktuelles Wetter: Schauenburg-Elgershausen (317m)

6-stündlich | Neueste Meldungen
Ortszeit Temperatur Wetter
Do, 28.10. 2:00 8.6° C leicht bewölkt
Mi, 27.10. 20:00 10.6° C wolkig
Mi, 27.10. 14:00 11.9° C bedeckt
Mi, 27.10. 8:00 8.2° C bedeckt
Mi, 27.10. 2:00 7.6° C leicht bewölkt
Di, 26.10. 20:00 11.3° C bewölkt
Di, 26.10. 14:00 13.9° C wolkig
Di, 26.10. 8:00 8.1° C bewölkt
Ortszeit Temperatur Wetter
Do, 28.10. 2:30 7.9° C wolkig
Do, 28.10. 2:20 7.9° C wolkig
Do, 28.10. 2:10 8.0° C wolkig
Do, 28.10. 2:00 8.6° C leicht bewölkt
Do, 28.10. 1:50 8.6° C leicht bewölkt
Do, 28.10. 1:40 7.9° C wolkig
Do, 28.10. 1:30 7.9° C wolkig
Do, 28.10. 1:00 8.1° C wolkig
Do, 28.10. 0:30 8.2° C leicht bewölkt
Do, 28.10. 0:00 8.3° C wolkenlos
Mi, 27.10. 23:30 8.3° C fast wolkenlos
Ortszeit Relative Feuchte Sichtweite
Do, 28.10. 2:00 94% 13 km
Mi, 27.10. 20:00 87% 30 km
Mi, 27.10. 14:00 82% 20 km
Mi, 27.10. 8:00 92% 9 km
Mi, 27.10. 2:00 87% 40 km
Di, 26.10. 20:00 73% 45 km
Di, 26.10. 14:00 60% 35 km
Di, 26.10. 8:00 92% 15 km
Ortszeit Relative Feuchte Sichtweite
Do, 28.10. 2:30 93% 18 km
Do, 28.10. 2:20 93% -
Do, 28.10. 2:10 90% -
Do, 28.10. 2:00 94% 13 km
Do, 28.10. 1:50 94% -
Do, 28.10. 1:40 93% -
Do, 28.10. 1:30 94% 9 km
Do, 28.10. 1:00 93% 11 km
Do, 28.10. 0:30 92% 11 km
Do, 28.10. 0:00 94% 11 km
Mi, 27.10. 23:30 92% 13 km
Ortszeit Niederschlagsmenge Niederschlagsart
Do, 28.10. 2:00 0.0 l/m2 in 6 Std. -
Mi, 27.10. 20:00 0.0 l/m2 in 12 Std. -
Mi, 27.10. 14:00 0.0 l/m2 in 6 Std. -
Mi, 27.10. 8:00 0.0 l/m2 in 12 Std. -
Mi, 27.10. 2:00 0.0 l/m2 in 6 Std. -
Di, 26.10. 20:00 0.1 l/m2 in 12 Std. -
Di, 26.10. 14:00 0.1 l/m2 in 6 Std. Regen
Di, 26.10. 8:00 0.5 l/m2 in 12 Std. -
Ortszeit Niederschlagsmenge Niederschlagsart
Do, 28.10. 2:30 0.0 l/m2 in 1 Std. -
Do, 28.10. 2:20 keine Meldung -
Do, 28.10. 2:10 keine Meldung -
Do, 28.10. 2:00 0.0 l/m2 in 1 Std. -
Do, 28.10. 1:50 keine Meldung -
Do, 28.10. 1:40 keine Meldung -
Do, 28.10. 1:30 0.0 l/m2 in 1 Std. -
Do, 28.10. 1:00 0.0 l/m2 in 1 Std. -
Do, 28.10. 0:30 0.0 l/m2 in 1 Std. -
Do, 28.10. 0:00 0.0 l/m2 in 1 Std. -
Mi, 27.10. 23:30 0.0 l/m2 in 1 Std. -
Ortszeit Stärke Spitze Richtung
km/h Bft. km/h Grad Sektor
Do, 28.10. 2:00 4 1 11 50° NO
Mi, 27.10. 20:00 4 1 18 70° O
Mi, 27.10. 14:00 7 2 18 170° S
Mi, 27.10. 8:00 6 1 17 90° O
Mi, 27.10. 2:00 7 2 18 230° SW
Di, 26.10. 20:00 7 2 29 210° SW
Di, 26.10. 14:00 14 3 29 220° SW
Di, 26.10. 8:00 4 1 7 260° W
Ortszeit Stärke Spitze Richtung
km/h Bft. km/h Grad Sektor
Do, 28.10. 2:30 4 1 7 300° NW
Do, 28.10. 2:20 4 1 - 300° NW
Do, 28.10. 2:10 4 1 - 350° N
Do, 28.10. 2:00 4 1 7 50° NO
Do, 28.10. 1:50 4 1 - 50° NO
Do, 28.10. 1:40 4 1 - 30° NO
Do, 28.10. 1:30 4 1 7 60° NO
Do, 28.10. 1:00 4 1 7 20° N
Do, 28.10. 0:30 4 1 7 30° NO
Do, 28.10. 0:00 4 1 7 10° N
Mi, 27.10. 23:30 4 1 7 80° O
Ortszeit Untergrenze Bedeckung Gattung
total tief tief mittel hoch
Do, 28.10. 2:00 360 m 4/8 1/8 - - -
Mi, 27.10. 20:00 8400 m 8/8 0/8 - - -
Mi, 27.10. 14:00 690 m 8/8 8/8 - - -
Mi, 27.10. 8:00 150 m 8/8 8/8 - - -
Mi, 27.10. 2:00 1110 m 2/8 2/8 - - -
Di, 26.10. 20:00 1500 m 7/8 6/8 - - -
Di, 26.10. 14:00 1020 m 6/8 6/8 - - -
Di, 26.10. 8:00 660 m 8/8 7/8 - - -
Ortszeit Bedeckungsgrad in Achtel und Wolkenuntergrenze
Do, 28.10. 2:30 1(360m) 7(10500m) 8(10500m)
Do, 28.10. 2:20 1(360m) 7(10500m) 8(10500m)
Do, 28.10. 2:10 1(360m) 6(9000m) 7(10500m)
Do, 28.10. 2:00 1(360m) 4(9000m) 6(10500m)
Do, 28.10. 1:50 1(360m) 4(9000m) 4(12000m)
Do, 28.10. 1:40 1(360m) 7(9000m)
Do, 28.10. 1:30 8(9000m) 8(9000m) 7(9000m)
Do, 28.10. 1:00 8(9000m)
Do, 28.10. 0:30 5(9000m)
Do, 28.10. 0:00 keine Wolken
Mi, 27.10. 23:30 1(12000m)
Ortszeit Luftdruck NN (hPa) Tendenz (hPa in 3 Std.)
Do, 28.10. 2:00 1024 - 0,6
Mi, 27.10. 20:00 1024 - 0,1
Mi, 27.10. 14:00 1025 - 0,3
Mi, 27.10. 8:00 1025 + 0,5
Mi, 27.10. 2:00 1025 + 0,7
Di, 26.10. 20:00 1023 + 1,1
Di, 26.10. 14:00 1021 + 0,1
Di, 26.10. 8:00 1021 + 0,7
Ortszeit Luftdruck NN (hPa) Tendenz (hPa in 3 Std.)
Do, 28.10. 2:30 1023 - 0,8
Do, 28.10. 2:20 1023 keine Meldung
Do, 28.10. 2:10 1024 keine Meldung
Do, 28.10. 2:00 1024 - 0,6
Do, 28.10. 1:50 1024 keine Meldung
Do, 28.10. 1:40 1024 keine Meldung
Do, 28.10. 1:30 1024 - 0,5
Do, 28.10. 1:00 1024 - 0,6
Do, 28.10. 0:30 1024 - 0,5
Do, 28.10. 0:00 1024 - 0,4
Mi, 27.10. 23:30 1024 - 0,2
Ortszeit Schneehöhe (cm)
Do, 28.10. 2:00 0
Mi, 27.10. 20:00 0
Mi, 27.10. 14:00 0
Mi, 27.10. 8:00 0
Mi, 27.10. 2:00 0
Di, 26.10. 20:00 0
Di, 26.10. 14:00 0
Di, 26.10. 8:00 0
Ortszeit Schneehöhe (cm)
Do, 28.10. 2:30 0
Do, 28.10. 2:20 0
Do, 28.10. 2:10 0
Do, 28.10. 2:00 0
Do, 28.10. 1:50 0
Do, 28.10. 1:40 0
Do, 28.10. 1:30 0
Do, 28.10. 1:00 0
Do, 28.10. 0:30 0
Do, 28.10. 0:00 0
Mi, 27.10. 23:30 0
Link zu dieser Seite / Seite empfehlen

Das Wetter in ...